#timestamp,LO_Frequency,Hit,StdDev 
1644141615.8,286047002.3,N
1644141635.6,286047001.6,N
1644141655.4,286047001.5,N
1644141675.3,286047001.7,N
1644141695.1,286047004.4,Y
1644141715.8,286047001.5,P
1644141735.7,286047002.5,P
1644141755.5,286047000.7,N
1644141775.4,286047000.4,N
1644141825.2,286047002.8,E
1644141835.1,286047000.8,N
1644141855.1,286046998.5,P
1644141856.0,286046998.5,N
1644141875.8,286046998.6,N
1644141895.6,286046998.5,N
1644141915.5,286047001.2,N
1644141935.3,286047001.2,N
1644141955.2,286047002.7,N
1644141975.9,286047001.9,N
1644141995.7,286046999.7,N
1644142015.6,286047000.6,N
1644142035.4,286047000.8,N
1644142055.3,286046999.7,N
1644142075.1,286046999.9,N
1644142076.0,286046999.9,N
1644142095.8,286047000.2,N
1644142115.7,286046999.8,N
1644142135.5,286046999.9,N
1644142155.3,286047000.0,N
1644142175.2,286047001.1,N
1644142195.0,286046998.3,N
1644142195.9,286046998.3,N
1644142215.8,286046998.5,N
1644142235.6,286047000.0,N
1644142255.4,286047001.1,N
1644142275.3,286046998.6,N
1644142295.1,286046996.5,N
1644142315.8,286046997.0,N
1644142335.7,286046998.0,N
1644142355.5,286046999.2,N
1644142375.4,286046997.0,N
1644142395.2,286046995.4,Y
1644142415.0,286046996.7,P
1644142415.9,286046996.7,N
1644142435.8,286046997.0,N
1644142455.6,286046997.0,N
1644142475.5,286046997.0,N
1644142495.3,286046996.5,Y
1644142515.1,286047002.3,P
1644142535.9,286047002.1,N
1644142555.7,286047001.8,N
1644142575.5,286047004.3,N
1644142595.4,286047003.0,N
1644142615.2,286047002.9,N
1644142635.1,286047003.2,N
1644142636.0,286047003.2,N
1644142655.8,286047001.3,N
1644142675.6,286047004.4,N
1644142695.5,286047002.2,N
1644142715.3,286047002.5,N
1644142735.2,286047001.7,N
1644142755.9,286047002.6,N
1644142775.7,286047002.6,N
1644142795.6,286047002.2,N
1644142815.4,286047001.1,N
1644142835.8,286046998.9,N
1644142855.6,286047000.6,N
1644142875.4,286046999.9,N
1644142895.3,286047000.4,N
1644142915.1,286047000.7,N
1644142935.9,286047000.9,N
1644142955.7,286047001.1,N
1644142975.5,286047000.6,N
1644142995.4,286047000.3,N
1644143015.2,286047000.1,N
1644143035.0,286046999.9,N
1644143035.9,286046999.9,N
1644143055.8,286046999.7,N
1644143075.6,286047002.6,N
1644143095.5,286047002.2,N
1644143115.3,286047001.8,N
1644143135.1,286047001.6,N
1644143155.9,286047002.5,N
1644143175.7,286046999.9,N
1644143195.5,286047001.7,N
1644143215.4,286047002.3,N
1644143235.2,286047000.3,N
1644143255.1,286047000.0,N
1644143256.0,286047000.0,N
1644143275.8,286047000.8,N
1644143295.6,286047001.2,N
1644143315.5,286047001.0,N
1644143335.3,286047000.2,N
1644143355.1,286046999.9,N
1644143375.9,286047002.0,N
1644143395.7,286047001.8,N
1644143415.6,286047004.1,Y
1644143435.4,286047001.3,P
1644143455.2,286047003.7,P
1644143475.1,286047001.9,N
1644143476.0,286047001.9,N
1644143495.8,286047002.6,N
1644143515.6,286047001.9,N
1644143535.5,286047002.6,Y
1644143555.3,286046998.3,P
1644143575.2,286046998.6,N
1644143595.9,286046999.0,N
1644143615.7,286047000.8,N
1644143635.6,286047000.8,N
1644143655.4,286046998.7,N
1644143675.2,286046998.7,N
1644143695.1,286046999.5,N
1644143696.0,286046999.5,N
1644143715.8,286046999.1,N
1644143735.7,286046999.0,N
1644143755.5,286047000.2,N
1644143775.3,286046998.2,N
1644143795.2,286046998.8,N
1644143815.0,286046999.0,N
1644143815.9,286046999.0,N
1644143835.8,286046998.4,N
1644143855.6,286046998.9,N
1644143875.4,286047000.8,N
1644143895.3,286046998.5,N
1644143915.1,286047001.1,N
1644143935.8,286047001.2,N
1644143955.7,286046998.3,N
1644143975.5,286046998.8,N
1644143995.4,286046998.1,N
1644144015.2,286047000.0,N
1644144035.0,286047001.1,N
1644144035.9,286047001.1,N
1644144055.8,286047000.9,N
1644144075.6,286047000.9,N
1644144095.4,286047002.8,N
1644144115.3,286047000.7,N
1644144135.1,286047000.8,N
1644144155.9,286047001.2,N
1644144175.7,286047000.3,N
1644144195.5,286047001.0,N
1644144215.4,286047000.6,N
1644144235.2,286047000.5,N
1644144255.0,286047000.9,N
1644144255.9,286047000.9,N
1644144275.8,286047000.7,N
1644144295.6,286047000.8,N
1644144315.5,286047000.7,N
1644144335.3,286047000.0,N
1644144355.1,286047001.0,N
1644144375.9,286046999.9,N
1644144395.7,286046999.8,N
1644144415.5,286047002.2,N
1644144435.4,286047001.6,N
1644144455.2,286047002.8,N
1644144475.1,286047000.0,N
1644144476.0,286047000.0,N
1644144495.8,286047001.1,N
1644144515.6,286046998.1,N
1644144535.5,286047001.0,N
1644144555.3,286047000.6,N
1644144575.1,286047001.0,N
1644144595.9,286047000.4,N
1644144615.7,286047002.8,Y
1644144635.6,286046999.7,P
1644144655.4,286047000.9,N
1644144675.2,286047000.4,N
1644144695.1,286047001.1,N
1644144696.0,286047001.1,N
1644144715.8,286047000.3,N
1644144735.7,286047002.8,Y
1644144755.5,286047000.9,P
1644144775.3,286046998.5,P
1644144795.2,286046998.5,N
1644144845.9,286047000.4,E
1644144855.9,286047000.4,N
1644144875.7,286046999.3,P
1644144895.5,286047000.5,N
1644144915.4,286046998.1,Y
1644144935.2,286046998.8,P
1644144955.1,286046998.4,N
1644144956.0,286046998.4,N
1644144975.8,286046998.2,N
1644144995.6,286047000.9,N
1644145015.5,286047000.8,N
1644145035.3,286046999.8,N
1644145055.1,286047001.0,N
1644145075.9,286046998.1,N
1644145095.7,286047001.0,N
1644145115.6,286046999.1,N
1644145135.4,286046998.1,N
1644145155.2,286046996.5,Y
1644145175.1,286046999.6,P
1644145176.0,286046999.6,P
1644145195.8,286046999.2,P
